This demonstration page uses our WeatherBlox Daily Observations layout. Learn more.

Left ArrowRight Arrow

39.08367, -84.50855

Hourly Observations for April 5, 2020

Temp ( °F °C ) Dew Point ( °F °C ) Humidity (%) Winds ( mph kmh ) Pressure ( in mb ) Visibility ( mi km ) Precip ( " mm )
12:53 am 00:53 Cloudy 57 13.9 48 8.9 72 72 N 8 13 30.03 1017 10 16 0.00 0.00
1:53 am 01:53 Cloudy 56 13.3 48 8.9 75 75 N 7 11 30.03 1017 10 16 0.00 0.00
2:53 am 02:53 Cloudy 54 12.2 47 8.3 77 77 NNW 7 11 30.04 1017 10 16 0.00 0.00
3:53 am 03:53 Cloudy 53 11.7 47 8.3 80 80 N 8 13 30.04 1017 10 16 0.00 0.00
4:53 am 04:53 Cloudy with Light Rain 52 11.1 46 7.8 80 80 N 6 9 30.04 1017 10 16 0.00 0.00
5:53 am 05:53 Cloudy 51 10.6 48 8.9 89 89 N 6 9 30.04 1017 10 16 0.01 0.25
6:46 am 06:46 Cloudy 50 10 47 8.3 89 89 NW 7 11 30.08 1019 10 16 0.00 0.00
6:53 am 06:53 Cloudy 50 10 47 8.3 89 89 NW 9 15 30.06 1018 9 14 0.00 0.00
7:37 am 07:37 Cloudy 50 10 46 7.8 86 86 NNE 3 6 30.09 1019 7 11 0.00 0.00
7:53 am 07:53 Cloudy with Light Rain 50 10 47 8.3 89 89 Calm 30.09 1019 5 8 0.01 0.25
8:53 am 08:53 Cloudy with Mist and Fog 49 9.4 48 8.9 97 97 NNE 6 9 30.09 1019 6 10 0.04 1.02
9:53 am 09:53 Cloudy with Mist and Fog 51 10.6 48 8.9 89 89 N 6 9 30.11 1020 6 10 0.01 0.25
10:53 am 10:53 Cloudy 52 11.1 48 8.9 86 86 N 6 9 30.12 1020 10 16 0.00 0.00
11:53 am 11:53 Cloudy 53 11.7 48 8.9 83 83 N 6 9 30.13 1020 10 16 0.00 0.00
12:53 pm 12:53 Cloudy with Haze 56 13.3 49 9.4 77 77 NNW 8 13 30.12 1020 5 8 0.00 0.00
1:53 pm 13:53 Mostly Cloudy 59 15 50 10 72 72 N 8 13 30.11 1020 8 13 0.00 0.00
2:53 pm 14:53 Cloudy 58 14.4 50 10 75 75 N 8 13 30.10 1019 10 16 0.00 0.00
3:53 pm 15:53 Cloudy 59 15 49 9.4 69 69 N 3 6 30.09 1019 10 16 0.00 0.00
4:53 pm 16:53 Cloudy 58 14.4 49 9.4 72 72 NW 6 9 30.10 1019 10 16 0.00 0.00
5:53 pm 17:53 Mostly Cloudy 58 14.4 49 9.4 72 72 N 8 13 30.10 1019 10 16 0.00 0.00
6:00 pm 18:00 Cloudy 58 14.4 49 9.4 72 72 N 9 15 30.10 1019 10 16 0.00 0.00
6:53 pm 18:53 Cloudy 57 13.9 49 9.4 74 74 N 8 13 30.11 1020 10 16 0.00 0.00
7:53 pm 19:53 Cloudy 56 13.3 48 8.9 75 75 N 8 13 30.11 1020 10 16 0.00 0.00
8:53 pm 20:53 Cloudy 55 12.8 48 8.9 77 77 N 7 11 30.12 1020 10 16 0.00 0.00
9:53 pm 21:53 Cloudy 54 12.2 48 8.9 80 80 N 8 13 30.14 1021 10 16 0.00 0.00
10:53 pm 22:53 Cloudy 53 11.7 48 8.9 83 83 NE 7 11 30.13 1020 10 16 0.00 0.00
11:53 pm 23:53 Cloudy 52 11.1 46 7.8 80 80 NE 9 15 30.13 1020 10 16 0.00 0.00

Powered by AerisWeather